| time (UTC) | temp C | wind direction | speed KPH | gust KPH | rain 1hr cm | rain 24hr cm | rain mn cm | humidity % | barometer mb |
| 20260506044720 | 15 | 247 | 4.8 | 8.0 | 0.00 | 0.00 | 0.00 | 48 | |
| 20260506043718 | 15 | 337 | 1.6 | 1.6 | 0.00 | 0.00 | 0.00 | 46 | |
| 20260506042718 | 16 | 270 | 3.2 | 6.4 | 0.00 | 0.00 | 0.00 | 47 | |
| 20260506040737 | 16 | 270 | 3.2 | 6.4 | 0.00 | 0.00 | 0.00 | 44 | |
| 20260506035819 | 16 | 270 | 6.4 | 6.4 | 0.00 | 0.00 | 0.00 | 43 | |
| 20260506034918 | 16 | 292 | 3.2 | 4.8 | 0.00 | 0.00 | 0.00 | 43 | |
| 20260506033918 | 17 | 247 | 4.8 | 4.8 | 0.00 | 0.00 | 0.00 | 41 | |
| 20260506032919 | 17 | 270 | 1.6 | 1.6 | 0.00 | 0.00 | 0.00 | 40 | |
| 20260506031920 | 17 | 292 | 8.0 | 8.0 | 0.00 | 0.00 | 0.00 | 39 | |
| 20260506031018 | 17 | 270 | 3.2 | 3.2 | 0.00 | 0.00 | 0.00 | 39 | |
| 20260506030019 | 17 | 304 | 6.4 | 6.4 | 0.00 | 0.00 | 0.00 | 38 | |
| 20260506025021 | 17 | 292 | 4.8 | 4.8 | 0.00 | 0.00 | 0.00 | 37 | |
| 20260506024017 | 18 | 292 | 8.0 | 8.0 | 0.00 | 0.00 | 0.00 | 37 | |
| 20260506023021 | 18 | 269 | 9.7 | 9.7 | 0.00 | 0.00 | 0.00 | 36 | |
| 20260506022118 | 18 | 269 | 3.2 | 3.2 | 0.00 | 0.00 | 0.00 | 35 | |
| 20260506021119 | 18 | 304 | 6.4 | 8.0 | 0.00 | 0.00 | 0.00 | 35 | |
| 20260506020118 | 19 | 281 | 11.3 | 12.9 | 0.00 | 0.00 | 0.00 | 34 | |
| 20260506014241 | 20 | 292 | 9.7 | 14.5 | 0.00 | 0.00 | 0.00 | 33 | |
| 20260506013319 | 20 | 270 | 16.1 | 16.1 | 0.00 | 0.00 | 0.00 | 32 | |
| 20260506012418 | 20 | 281 | 11.3 | 14.5 | 0.00 | 0.00 | 0.00 | 32 | |
| 20260506011418 | 21 | 292 | 17.7 | 17.7 | 0.00 | 0.00 | 0.00 | 31 | |
| 20260506010419 | 21 | 270 | 9.7 | 12.9 | 0.00 | 0.00 | 0.00 | 30 | |
| 20260506005436 | 21 | 202 | 3.2 | 3.2 | 0.00 | 0.00 | 0.00 | 29 | |
| 20260506004419 | 21 | 269 | 11.3 | 16.1 | 0.00 | 0.00 | 0.00 | 29 | |
| 20260506003421 | 21 | 270 | 8.0 | 8.0 | 0.00 | 0.00 | 0.00 | 28 | |
| 20260506002419 | 22 | 180 | 9.7 | 9.7 | 0.00 | 0.00 | 0.00 | 29 | |
| 20260506001421 | 22 | 225 | 8.0 | 8.0 | 0.00 | 0.00 | 0.00 | 28 | |
| 20260505235418 | 22 | 202 | 8.0 | 8.0 | 0.00 | 0.00 | 0.00 | 26 | |
| 20260505234419 | 22 | 247 | 6.4 | 6.4 | 0.00 | 0.00 | 0.00 | 25 | |
| 20260505233420 | 22 | 202 | 11.3 | 11.3 | 0.00 | 0.00 | 0.00 | 23 | |
| 20260505232419 | -17 | 0 | 0.0 | 0.0 | 0.00 | 0.00 | 0.00 | 100 | |
| 20260505231518 | 22 | 292 | 12.9 | 12.9 | 0.00 | 0.00 | 0.00 | 24 | |
| 20260505225521 | 22 | 270 | 17.7 | 17.7 | 0.00 | 0.00 | 0.00 | 26 | |
| 20260505224520 | 22 | 292 | 20.9 | 20.9 | 0.00 | 0.00 | 0.00 | 28 | |
| 20260505222519 | 22 | 247 | 12.9 | 16.1 | 0.00 | 0.00 | 0.00 | 30 | |
| 20260505221520 | 23 | 270 | 3.2 | 3.2 | 0.00 | 0.00 | 0.00 | 31 | |
| 20260505220518 | -17 | 0 | 0.0 | 0.0 | 0.00 | 0.00 | 0.00 | 100 | |
| 20260505214618 | 23 | 247 | 6.4 | 6.4 | 0.00 | 0.00 | 0.00 | 32 | |
| 20260505213628 | 23 | 225 | 12.9 | 12.9 | 0.00 | 0.00 | 0.00 | 31 | |
| 20260505212645 | 23 | 202 | 8.0 | 8.0 | 0.00 | 0.00 | 0.00 | 32 | |
| 20260505211729 | 23 | 202 | 11.3 | 11.3 | 0.00 | 0.00 | 0.00 | 33 | |
| 20260505210731 | 23 | 225 | 6.4 | 6.4 | 0.00 | 0.00 | 0.00 | 34 | |
| 20260505205743 | 23 | 236 | 12.9 | 17.7 | 0.00 | 0.00 | 0.00 | 35 | |
| 20260505203730 | 22 | 265 | 9.7 | 11.3 | 0.00 | 0.00 | 0.00 | 36 | |
| 20260505200828 | 22 | 240 | 8.0 | 9.7 | 0.00 | 0.00 | 0.00 | 38 | |
| 20260505195844 | 22 | 268 | 14.5 | 20.9 | 0.00 | 0.00 | 0.00 | 40 | |
| 20260505194931 | 22 | 203 | 24.1 | 25.7 | 0.00 | 0.00 | 0.00 | 40 | |
| 20260505193929 | 21 | 230 | 12.9 | 16.1 | 0.00 | 0.00 | 0.00 | 42 | |
| 20260505192929 | 22 | 247 | 9.7 | 9.7 | 0.00 | 0.00 | 0.00 | 42 | |
| 20260505191928 | 22 | 157 | 19.3 | 19.3 | 0.00 | 0.00 | 0.00 | 41 | |
| 20260505190929 | 22 | 247 | 6.4 | 6.4 | 0.00 | 0.00 | 0.00 | 41 | |
| 20260505190028 | 22 | 270 | 9.7 | 9.7 | 0.00 | 0.00 | 0.00 | 42 | |
| 20260505185027 | 21 | 180 | 9.7 | 9.7 | 0.00 | 0.00 | 0.00 | 41 | |
| 20260505182030 | 22 | 269 | 8.0 | 9.7 | 0.00 | 0.00 | 0.00 | 45 | |
| 20260505181028 | 22 | 225 | 11.3 | 14.5 | 0.00 | 0.00 | 0.00 | 46 | |
| 20260505180029 | 21 | 236 | 8.0 | 12.9 | 0.00 | 0.00 | 0.00 | 48 | |
| 20260505173129 | 21 | 247 | 8.0 | 9.7 | 0.00 | 0.00 | 0.00 | 55 | |
| 20260505172129 | 20 | 185 | 8.0 | 12.9 | 0.00 | 0.00 | 0.00 | 54 | |
| 20260505170230 | 20 | 225 | 9.7 | 9.7 | 0.00 | 0.00 | 0.00 | 56 | |
| 20260505165230 | 19 | 224 | 8.0 | 12.9 | 0.00 | 0.00 | 0.00 | 61 | |
| 20260505164229 | 19 | 269 | 6.4 | 6.4 | 0.00 | 0.00 | 0.00 | 64 | |
| 20260505163230 | 19 | 168 | 6.4 | 6.4 | 0.00 | 0.00 | 0.00 | 68 | |
| 20260505162328 | 20 | 247 | 3.2 | 3.2 | 0.00 | 0.00 | 0.00 | 75 | |
| 20260505161427 | 20 | 202 | 3.2 | 3.2 | 0.00 | 0.00 | 0.00 | 71 | |
| 20260505160430 | 18 | 180 | 3.2 | 3.2 | 0.00 | 0.00 | 0.00 | 67 | |
| 20260505152531 | -17 | 0 | 0.0 | 0.0 | 0.00 | 0.00 | 0.00 | 100 | |
| 20260505151528 | -17 | 0 | 0.0 | 0.0 | 0.00 | 0.00 | 0.00 | 100 | |
| 20260505150530 | -17 | 0 | 0.0 | 0.0 | 0.00 | 0.00 | 0.00 | 100 | |
| 20260505140631 | -17 | 0 | 0.0 | 0.0 | 0.00 | 0.00 | 0.00 | 100 | |
| 20260505124729 | -17 | 0 | 0.0 | 0.0 | 0.00 | 0.00 | 0.00 | 100 | |
| 20260505123729 | -17 | 0 | 0.0 | 0.0 | 0.00 | 0.00 | 0.00 | 100 | |
| 20260505121731 | -17 | 0 | 0.0 | 0.0 | 0.00 | 0.00 | 0.00 | 100 | |
| 20260505120728 | -17 | 0 | 0.0 | 0.0 | 0.00 | 0.00 | 0.00 | 100 | |
| 20260505115729 | -17 | 0 | 0.0 | 0.0 | 0.00 | 0.00 | 0.00 | 100 | |
| 20260505114729 | -17 | 0 | 0.0 | 0.0 | 0.00 | 0.00 | 0.00 | 100 | |
| 20260505113730 | -17 | 0 | 0.0 | 0.0 | 0.00 | 0.00 | 0.00 | 100 | |
| 20260505111829 | -17 | 0 | 0.0 | 0.0 | 0.00 | 0.00 | 0.00 | 100 | |
| 20260505110830 | -17 | 0 | 0.0 | 0.0 | 0.00 | 0.00 | 0.00 | 100 | |
| 20260505101829 | -17 | 0 | 0.0 | 0.0 | 0.00 | 0.00 | 0.00 | 100 | |
| 20260505100927 | -17 | 0 | 0.0 | 0.0 | 0.00 | 0.00 | 0.00 | 100 | |
| 20260505095930 | -17 | 0 | 0.0 | 0.0 | 0.00 | 0.00 | 0.00 | 100 | |
| 20260505095028 | -17 | 0 | 0.0 | 0.0 | 0.00 | 0.00 | 0.00 | 100 | |
| 20260505094127 | -17 | 0 | 0.0 | 0.0 | 0.00 | 0.00 | 0.00 | 100 | |
| 20260505091129 | -17 | 0 | 0.0 | 0.0 | 0.00 | 0.00 | 0.00 | 100 | |
| 20260505090129 | -17 | 0 | 0.0 | 0.0 | 0.00 | 0.00 | 0.00 | 100 | |
| 20260505085228 | -17 | 0 | 0.0 | 0.0 | 0.00 | 0.00 | 0.00 | 100 | |
| 20260505084230 | -17 | 0 | 0.0 | 0.0 | 0.00 | 0.00 | 0.00 | 100 | |
| 20260505083230 | -17 | 0 | 0.0 | 0.0 | 0.00 | 0.00 | 0.00 | 100 | |
| 20260505082229 | -17 | 0 | 0.0 | 0.0 | 0.00 | 0.00 | 0.00 | 100 | |
| 20260505081229 | -17 | 0 | 0.0 | 0.0 | 0.00 | 0.00 | 0.00 | 100 | |
| 20260505080229 | -17 | 0 | 0.0 | 0.0 | 0.00 | 0.00 | 0.00 | 100 | |
| 20260505075229 | -17 | 0 | 0.0 | 0.0 | 0.00 | 0.00 | 0.00 | 100 | |
| 20260505074329 | -17 | 0 | 0.0 | 0.0 | 0.00 | 0.00 | 0.00 | 100 | |
| 20260505073328 | -17 | 0 | 0.0 | 0.0 | 0.00 | 0.00 | 0.00 | 100 | |
| 20260505072414 | -17 | 0 | 0.0 | 0.0 | 0.00 | 0.00 | 0.00 | 100 | |
| 20260505071513 | -17 | 0 | 0.0 | 0.0 | 0.00 | 0.00 | 0.00 | 100 | |
| 20260505065531 | 13 | 247 | 6.4 | 6.4 | 0.00 | 0.00 | 0.00 | 85 | |
| 20260505064532 | -17 | 0 | 0.0 | 0.0 | 0.00 | 0.00 | 0.00 | 100 | |
| 20260505063530 | 14 | 202 | 3.2 | 3.2 | 0.00 | 0.00 | 0.00 | 82 | |
| 20260505062530 | 15 | 247 | 6.4 | 6.4 | 0.00 | 0.00 | 0.00 | 79 | |
| 20260505061546 | 15 | 247 | 3.2 | 3.2 | 0.00 | 0.00 | 0.00 | 76 | |
| 20260505060531 | 15 | 292 | 4.8 | 4.8 | 0.00 | 0.00 | 0.00 | 73 | |
| 20260505054531 | 16 | 225 | 6.4 | 6.4 | 0.00 | 0.00 | 0.00 | 66 |